Terminal Aerodrome Forecast
Issued by NWS

Home | Current Version | Previous Version | Text Only | Print | Product List | Glossary On
Versions: 1 2 3 4 5 6 7 8 9 10 11 12 13 14 15 16
000
FTAK31 PAJN 201100
TAFAYA
TAF
PAYA 201120Z 2012/2112 08008KT P6SM BKN050 OVC100
     FM201500 09005KT P6SM VCSH SCT030 OVC050
     FM201800 11008KT P6SM SCT015 BKN030 OVC050 WS020/13030KT
      TEMPO 2018/2022 -RA
     FM202300 VRB05KT P6SM FEW030 SCT050
     FM210600 00000KT P6SM FEW070
      AMD LTD TO CLD VIS AND WIND 2101/2110=

USA.gov is the U.S. government's official web portal to all federal, state and local government web resources and services.